EW4221 Weather Reports


time (UTC)temp
F
wind
direction
speed
knots
gust
knots
rain 1hr
in
rain 24hr
in
rain mn
in
humidity
%
barometer
mb
20260509150039 49 188 5.2 10.4 0.01 0.26 0.26 93 1007.9
20260509144548 49 115 4.3 14.8 0.02 0.26 0.26 93 1007.9
20260509143030 49 151 5.2 12.2 0.02 0.26 0.26 93 1008.2
20260509141531 49 214 3.5 13.0 0.02 0.26 0.26 94 1008.3
20260509140025 48 169 5.2 9.6 0.02 0.25 0.25 94 1008.5
20260509134538 48 190 1.7 11.3 0.01 0.25 0.24 94 1008.6
20260509133021 48 187 2.6 7.8 0.02 0.25 0.24 94 1008.6
20260509131517 48 160 1.7 8.7 0.02 0.25 0.24 95 1008.6
20260509130014 47 178 1.7 7.0 0.01 0.24 0.23 94 1008.6
20260509124513 47 177 3.5 6.1 0.03 0.24 0.23 94 1008.7
20260509123012 47 192 0.9 4.3 0.04 0.23 0.22 95 1008.7
20260509121522 47 235 4.3 8.7 0.06 0.23 0.22 95 1008.9
20260509120010 47 180 3.5 9.6 0.08 0.23 0.22 95 1009.0
20260509114522 47 142 1.7 7.0 0.07 0.21 0.20 95 1009.2
20260509113012 47 182 2.6 8.7 0.07 0.19 0.18 95 1009.2
20260509111504 47 183 2.6 7.0 0.06 0.17 0.16 95 1009.3
20260509110002 47 180 2.6 7.0 0.06 0.15 0.14 95 1009.2
20260509104600 47 188 0.9 4.3 0.06 0.14 0.13 95 1009.2
20260509103105 47 204 0.9 4.3 0.05 0.12 0.11 95 1009.1
20260509101623 46 198 0.9 5.2 0.05 0.11 0.10 94 1008.9
20260509100058 46 214 2.6 3.5 0.03 0.09 0.08 94 1008.7
20260509094603 46 154 1.7 4.3 0.02 0.08 0.07 94 1009.0
20260509093104 46 173 1.7 4.3 0.01 0.07 0.06 94 1009.2
20260509091553 46 264 4.3 8.7 0.01 0.06 0.05 94 1009.1
20260509090100 46 195 3.5 7.0 0.01 0.06 0.05 94 1009.2
20260509084548 46 165 1.7 6.1 0.01 0.06 0.05 94 1009.1
20260509083046 46 162 0.0 4.3 0.01 0.06 0.05 94 1009.1
20260509081546 46 169 1.7 4.3 0.00 0.05 0.04 94 1009.3
20260509080042 46 167 0.9 2.6 0.00 0.05 0.04 94 1009.4
20260509074546 47 217 0.0 2.6 0.00 0.05 0.04 94 1009.6
20260509073045 47 200 0.9 3.5 0.00 0.05 0.04 94 1009.8
20260509071545 47 176 0.9 2.6 0.00 0.05 0.04 94 1009.7
20260509070036 47 209 1.7 4.3 0.00 0.05 0.04 94 1009.9
20260509064541 47 220 1.7 3.5 0.01 0.05 0.04 93 1010.1
20260509063031 47 263 1.7 3.5 0.03 0.05 0.04 93 1010.4
20260509061528 47 225 1.7 4.3 0.04 0.05 0.04 93 1010.3
20260509060035 47 169 1.7 4.3 0.04 0.05 0.04 92 1010.3
20260509054527 47 169 2.6 4.3 0.03 0.04 0.03 92 1010.6
20260509053023 48 193 2.6 6.1 0.01 0.02 0.01 90 1010.8
20260509051521 48 217 1.7 7.0 0.00 0.01 0.00 89 1010.9
20260509050020 48 211 3.5 9.6 0.00 0.01 0.00 87 1011.0
20260509044516 48 212 1.7 4.3 0.00 0.01 0.00 87 1010.8
20260509043014 47 239 2.6 4.3 0.00 0.01 0.00 86 1010.8
20260509041511 48 193 1.7 3.5 0.00 0.01 0.00 84 1010.6
20260509040008 48 190 0.9 6.1 0.00 0.01 0.00 84 1010.7
20260509034507 48 268 1.7 7.8 0.00 0.01 0.01 84 1010.8
20260509033007 48 227 1.7 6.1 0.00 0.01 0.01 84 1010.8
20260509031506 48 202 1.7 4.3 0.00 0.01 0.01 84 1010.9
20260509030006 48 206 1.7 5.2 0.00 0.01 0.01 84 1010.8
20260509024507 48 205 0.9 4.3 0.00 0.02 0.01 84 1010.8
20260509023005 48 227 0.0 2.6 0.00 0.02 0.01 82 1010.9
20260509021505 48 202 0.9 3.5 0.00 0.02 0.01 81 1010.9
20260509020010 48 211 1.7 5.2 0.00 0.02 0.01 79 1010.8
20260509014506 49 150 0.9 3.5 0.00 0.02 0.01 77 1010.7
20260509013008 49 180 0.9 6.1 0.00 0.02 0.01 75 1010.6
20260509011502 50 171 0.9 3.5 0.00 0.02 0.01 73 1010.6
20260509010002 51 166 1.7 4.3 0.00 0.02 0.01 71 1010.3
20260509004600 51 177 0.9 5.2 0.00 0.02 0.01 66 1010.3
20260509003102 52 188 1.7 4.3 0.00 0.02 0.01 64 1010.1
20260509001600 52 144 1.7 3.5 0.00 0.02 0.01 62 1010.0
20260509000118 52 169 1.7 4.3 0.00 0.02 0.01 62 1009.9
20260509000001 52 152 1.7 4.3 0.00 0.02 0.01 62 1009.9
20260508234558 52 155 2.6 4.3 0.00 0.02 0.01 60 1009.8
20260508233115 52 153 0.9 2.6 0.00 0.02 0.01 59 1009.8
20260508231557 53 20 0.0 0.9 0.00 0.02 0.01 59 1009.6
20260508230100 53 20 0.0 1.7 0.00 0.02 0.01 55 1009.6
20260508224555 53 347 1.7 3.5 0.00 0.02 0.01 55 1009.7
20260508223056 54 360 2.6 7.0 0.00 0.02 0.01 54 1009.6
20260508221555 55 11 4.3 7.0 0.00 0.02 0.01 53 1009.5
20260508220055 57 355 4.3 7.0 0.00 0.02 0.01 47 1009.5
20260508214553 56 22 1.7 7.0 0.00 0.02 0.01 48 1009.5
20260508213052 56 340 3.5 9.6 0.00 0.02 0.01 51 1009.5
20260508211553 56 201 1.7 8.7 0.00 0.02 0.01 49 1009.7
20260508210049 56 349 5.2 9.6 0.00 0.02 0.01 53 1009.8
20260508204551 55 263 1.7 9.6 0.00 0.02 0.01 54 1010.1
20260508203042 55 312 4.3 9.6 0.00 0.02 0.01 52 1010.2
20260508201540 53 35 4.3 8.7 0.00 0.02 0.01 56 1010.4
20260508200052 53 5 7.0 8.7 0.00 0.02 0.01 57 1010.5
20260508194538 53 337 2.6 9.6 0.00 0.02 0.01 54 1010.6
20260508193041 54 301 3.5 10.4 0.00 0.02 0.01 55 1010.8
20260508191534 53 297 4.3 14.8 0.00 0.02 0.01 53 1010.9
20260508190031 53 211 5.2 10.4 0.00 0.02 0.01 54 1011.1
20260508184528 51 47 5.2 8.7 0.00 0.02 0.01 59 1011.2
20260508183026 50 15 4.3 11.3 0.00 0.02 0.01 57 1011.4
20260508181531 50 22 4.3 13.9 0.00 0.02 0.01 62 1011.4
20260508180024 50 313 5.2 10.4 0.00 0.02 0.01 63 1011.7
20260508174521 50 304 6.1 15.6 0.00 0.02 0.01 67 1011.8
20260508173021 49 325 4.3 14.8 0.00 0.02 0.01 69 1011.9
20260508171519 49 336 8.7 12.2 0.00 0.02 0.01 70 1011.8
20260508170017 48 278 7.0 10.4 0.00 0.02 0.01 68 1012.0
20260508164515 48 332 5.2 13.0 0.00 0.02 0.01 71 1012.1
20260508163016 47 360 3.5 10.4 0.00 0.02 0.01 77 1012.2
20260508161512 47 54 4.3 12.2 0.00 0.02 0.01 74 1012.2
20260508160008 47 271 7.0 12.2 0.00 0.02 0.01 72 1012.2
20260508154504 45 340 3.5 9.6 0.00 0.02 0.01 78 1012.1
20260508153100 44 301 6.1 10.4 0.00 0.02 0.01 80 1011.9
20260508151605 43 355 4.3 9.6 0.00 0.02 0.01 81 1012.3